Regional Weather Roundup
Issued by NWS Northern Indiana

Home | Current Version | Previous Version | Graphics & Text | Print | Product List | Glossary On
Versions: 1 2 3 4 5 6 7 8 9 10 11 12 13 14 15 16 17 18 19 20 21 22 23 24 25 26 27 28 29 30 31 32 33 34 35 36 37 38 39 40 41 42 43 44 45 46 47 48 49 50
000
ASUS43 KIWX 171000
RWRIWX

KIWX WEATHER ROUNDUP
NATIONAL WEATHER SERVICE NORTHERN INDIANA
600 AM EDT THU APR 17 2014

NOTE: "FAIR" INDICATES FEW OR NO CLOUDS BELOW 12,000 FEET WITH NO
SIGNIFICANT WEATHER AND/OR OBSTRUCTIONS TO VISIBILITY.

* THESE STATIONS ARE NOT UNDER NWS QUALITY CONTROL. THEY ALSO MAY NOT
  REPORT WEATHER SUCH AS PRECIPITATION OR FOG.

INZ001>027-171100-
NORTHERN INDIANA

CITY           SKY/WX    TMP DP  RH WIND       PRES   REMARKS
GARY*          MOCLDY    43  25  49 SE14      30.16S
VALPARAISO     MOCLDY    38  24  57 SE9       30.19S
LAPORTE*       MOCLDY    37  24  61 SE7       30.21S
SOUTH BEND     NOT AVBL
GOSHEN         MOCLDY    36  26  67 SE12      30.24S
MONTICELLO*    PTCLDY    36  27  69 SE5       30.20R
ANGOLA*        CLEAR     34  25  69 SE9       30.26S WCI  26
FORT WAYNE     PTCLDY    29  23  78 E6        30.26F WCI  23
PERU/GRISSOM   CLEAR     33  30  89 SE8       30.22R WCI  25

$$
INZ028>050-171100-
CENTRAL INDIANA

CITY           SKY/WX    TMP DP  RH WIND       PRES   REMARKS
LAFAYETTE      PTCLDY    39  25  57 S9        30.20R
KOKOMO*        CLEAR     32  25  74 SE9       30.23S WCI  24
MUNCIE*        CLEAR     40  22  48 S12G18    30.24S
INDIANAPOLIS   CLEAR     35  24  64 SE7       30.23R WCI  29

$$
MIZ043>046-050>051-056>058-064>065-071>073-077>080-171100-
SOUTHWEST LOWER MICHIGAN

CITY           SKY/WX    TMP DP  RH WIND       PRES   REMARKS
BATTLE CREEK   CLOUDY    35  25  66 SE8       30.26F WCI  29
BENTON HARBOR  PTCLDY    36  26  67 SE12      30.21S
COLDWATER*     MOCLDY    35  24  62 SE12      30.26F WCI  27
HILLSDALE*     MOCLDY    34  25  68 SE8       30.27S WCI  28
HOLLAND        PTCLDY    38  26  62 SE13      30.23S
GRAND RAPIDS   CLOUDY    36  26  67 SE13      30.26F
KALAMAZOO      CLOUDY    37  23  56 SE7       30.25S
STURGIS*       CLOUDY    36  25  64 SE10      30.24S
THREE RIVERS*  FAIR      37  24  58 SE7       30.25F

$$
OHZ001>008-015>018-024>025-171100-
NORTHWEST OHIO

CITY           SKY/WX    TMP DP  RH WIND       PRES   REMARKS
DEFIANCE       PTCLDY    31  24  75 E5        30.30S WCI  26
FINDLAY        CLEAR     33  23  66 SE6       30.29S WCI  28
TOLEDO EXPRESS CLEAR     32  22  66 E6        30.30F WCI  26
TOLEDO METCALF PTCLDY    33  22  63 E7        30.32F WCI  27
LIMA           CLEAR     35  23  61 SE10      30.27S WCI  27

$$
&&



USA.gov is the U.S. government's official web portal to all federal, state and local government web resources and services.